Starlink 3313

operational
NORAD ID: 50157 Int'l Des: 2021-125 Owner: SPXS Country: US Constellation: starlink
LEOCIRCULAR

关于 Starlink 3313

正在加载描述...

实时位置

正在加载3D地球...

即将过境

高度历史

Altitude vs Time

uPlot chart will show altitude changes over time

两行轨道根数

1 50157U 21125B 25306.37121644 .01362512 14297-2 94620-3 0 9992
2 50157 53.1955 66.8639 0009605 315.0011 45.0248 16.15996381217896
Epoch: Nov 2, 2025 • Age: 6 hours

当前状态

高度 234.8 km
速度 7.77 km/s
星下点 -38.30°S, 127.93°E
发射日期 Dec 18, 2021
运行时间 3.8 years
类型 internet

技术详情

分类 Payload
质量 290.00 kg
干质量 270.00 kg
总质量 290.00 kg
长度 0.20 m
直径 2.80 m
跨度 9.00 m
形状 Box + pan
制造商 SPXS
平台类型 Starlink
阶段状态 In Orbit
所有者/国家 SPXS/US

大型星座

Loading constellations...